Theta_e
321 321 321 321 321 320 320 320 320 320 320 319 319 319 319 319 319 320 319 319 320 319 320 321 322 323 325 320 326 331 352 343 346 354 343 342 341 333 328 329 331 325 328 330 333 334 334
320 320 320 320 320 320 319 319 320 320 320 319 319 319 318 318 319 319 319 318 319 319 320 321 322 325 321 318 333 329 343 334 342 349 348 342 337 340 333 330 327 329 331 330 332 331 332
320 320 320 319 319 319 319 319 319 319 318 318 318 318 318 318 318 318 318 318 318 319 320 321 323 327 326 327 336 342 349 345 347 347 336 342 342 338 332 331 334 331 325 329 330 331 331
319 319 319 319 319 319 319 319 319 318 318 318 318 318 317 317 317 317 317 317 317 319 321 323 324 326 323 339 341 338 349 349 353 346 338 340 348 341 331 330 331 328 324 318 327 330 334
319 319 319 319 319 319 319 318 318 317 317 317 317 317 317 317 316 316 316 317 320 321 323 326 324 326 324 342 334 339 347 344 345 346 347 346 340 334 332 328 322 322 311 313 321 331 332
318 319 319 318 319 319 319 318 318 317 317 316 316 316 316 317 316 315 315 318 324 322 325 328 327 321 330 329 336 339 341 341 337 339 336 335 332 323 322 319 313 312 314 313 313 326 328
318 318 318 318 318 319 318 318 318 317 317 316 316 316 316 316 316 315 316 321 318 318 318 314 319 322 325 336 336 332 337 336 337 332 324 328 320 316 317 321 321 320 317 316 317 327 327
318 318 318 318 319 318 318 318 318 318 317 316 316 316 315 315 314 314 317 321 324 321 310 316 320 325 334 336 328 333 336 328 328 322 324 320 314 322 325 323 319 318 315 316 320 324 325
318 318 318 318 318 318 318 317 317 317 317 315 315 315 314 314 314 313 318 321 330 327 313 315 320 323 330 332 325 326 331 329 325 321 321 315 319 325 322 320 315 315 314 315 315 320 321
318 318 318 318 318 317 317 317 317 317 317 315 315 314 314 313 311 325 320 327 329 329 311 308 314 321 329 330 323 331 331 327 324 320 319 316 322 321 320 316 317 311 315 316 316 315 314
318 318 318 318 317 317 317 317 317 317 316 314 314 314 313 311 317 324 328 330 330 324 300 312 313 324 327 324 325 325 332 327 321 321 319 316 320 317 316 318 318 313 316 315 315 314 317
318 318 318 318 317 317 317 316 316 316 314 314 313 313 313 316 318 323 331 331 326 309 301 309 314 314 316 322 323 325 324 329 327 321 321 320 325 322 319 321 318 318 315 317 318 314 309
318 318 317 317 317 316 316 316 316 315 314 313 312 311 311 320 325 331 330 325 309 304 317 307 309 313 313 314 318 321 319 319 316 311 310 317 317 321 321 316 319 315 314 308 306 307 307
317 317 317 317 317 316 316 316 316 315 314 312 310 310 312 319 331 332 327 317 304 313 313 313 312 311 309 313 315 318 316 314 319 316 313 310 308 316 320 316 314 315 314 306 302 302 306
317 317 317 317 316 316 316 316 315 314 313 311 308 317 326 328 325 330 320 309 309 314 314 311 311 308 308 312 312 314 315 313 315 316 309 310 309 320 320 319 317 312 310 315 308 310 308
317 317 317 317 316 316 316 316 315 314 312 310 324 326 326 331 329 326 316 306 314 319 318 314 307 310 307 309 310 311 313 317 315 318 320 315 308 317 319 318 317 315 317 309 311 304 302
317 317 316 316 316 316 316 315 314 313 311 310 324 323 329 331 329 320 311 313 315 321 319 317 314 311 311 310 310 309 310 315 319 318 320 318 314 312 318 313 312 313 311 312 313 310 304
316 316 316 316 316 316 316 315 314 312 309 307 327 320 329 330 315 316 313 316 308 318 319 319 317 318 315 314 311 310 310 313 318 317 313 317 314 310 312 318 319 318 314 315 308 308 311
316 316 316 316 316 316 316 315 313 311 310 318 325 321 328 326 311 313 317 317 317 317 319 319 317 318 319 315 312 314 313 318 319 317 314 316 312 306 309 313 317 314 314 315 314 314 308
316 316 316 316 316 316 315 314 313 311 311 315 326 316 319 320 320 317 316 315 314 319 320 321 320 322 318 316 318 315 314 317 318 318 330 321 313 309 305 310 314 312 314 315 314 308 309
316 316 316 316 316 316 315 315 313 311 311 321 327 320 319 310 313 317 317 316 313 315 320 321 319 319 318 314 311 314 317 317 318 318 320 317 311 313 313 314 314 313 312 314 313 312 310
315 315 315 316 316 316 316 315 314 311 310 325 319 318 322 321 318 316 313 317 316 317 319 317 317 319 319 316 314 313 315 317 315 319 317 318 311 313 311 313 312 311 314 313 313 314 314
315 315 315 315 316 316 316 315 314 312 313 315 315 321 321 315 317 315 316 317 316 317 319 319 317 316 316 315 317 321 320 320 317 314 317 317 315 313 308 313 312 307 312 313 314 316 316
315 315 315 315 316 316 316 316 315 313 311 318 315 316 317 314 317 314 314 315 315 315 314 317 319 315 318 320 320 322 320 320 320 320 321 316 313 309 308 311 304 314 319 319 317 317 318
315 315 315 315 315 315 316 316 316 314 312 317 318 315 315 311 311 312 310 311 313 316 315 316 317 317 319 316 312 310 311 313 316 319 319 320 316 311 308 308 312 314 317 314 312 316 321
314 314 315 315 315 315 316 316 316 314 313 318 319 318 317 312 309 310 308 310 308 309 310 313 317 317 314 312 309 306 303 309 309 312 320 320 319 314 312 306 303 314 317 322 319 311 320
313 314 314 315 315 316 316 317 317 316 313 314 320 319 317 313 312 311 308 308 310 308 307 310 312 311 312 307 305 303 303 310 305 307 310 313 313 308 310 308 312 319 322 322 308 314 325
313 313 313 314 315 315 316 316 316 316 314 313 320 321 313 313 316 313 312 310 311 312 307 310 309 312 311 305 304 305 305 307 307 311 310 310 310 304 307 310 306 324 324 317 325 329 328
313 313 313 313 314 314 315 315 315 315 314 314 316 321 319 314 315 316 314 314 312 311 308 309 308 310 311 306 308 309 306 308 309 305 315 308 313 313 315 314 321 323 322 326 329 326 327
Wind_Speed
18 19 19 19 18 18 18 18 18 17 16 17 16 15 14 14 13 11 9 8 8 8 7 7 8 7 8 9 1 11 10 8 13 12 10 6 9 5 5 10 4 2 8 12 7 5 14
19 19 19 19 19 20 19 19 18 18 17 17 17 16 15 14 13 11 10 9 9 9 8 7 7 8 8 10 7 15 16 14 15 15 12 3 12 14 13 6 6 9 5 17 5 12 6
19 19 19 19 19 20 20 20 19 18 18 18 17 16 15 15 13 12 10 10 10 9 8 8 7 7 11 2 12 8 11 15 19 17 9 9 28 18 6 10 16 10 13 14 9 15 9
19 19 19 20 19 19 20 20 19 19 19 18 17 17 16 15 14 13 11 11 11 10 9 8 7 8 4 2 9 8 11 13 11 29 16 31 9 7 10 8 8 16 13 7 11 9 12
20 19 19 19 20 20 19 19 19 19 19 18 17 17 16 15 14 14 12 14 14 11 9 6 7 9 5 3 12 10 14 12 6 15 28 9 9 14 4 11 5 8 8 16 11 12 14
20 20 20 21 21 20 20 19 18 19 19 18 18 17 16 14 14 14 14 13 4 7 8 10 12 10 13 14 13 7 10 12 13 12 15 14 6 10 7 7 8 10 9 7 17 12 12
21 21 22 22 21 21 20 20 19 20 20 19 18 17 15 14 14 12 12 5 6 7 13 12 15 16 20 18 19 14 15 6 12 12 8 23 5 11 12 14 10 16 24 33 32 12 14
22 22 22 22 21 21 21 21 20 19 19 19 18 15 15 14 13 11 7 8 13 5 9 20 19 21 18 17 14 9 2 8 6 10 7 15 9 18 21 19 16 7 5 10 9 9 5
21 22 21 21 21 22 22 22 21 20 19 20 17 16 14 12 12 5 13 18 16 13 6 16 11 15 16 17 11 8 7 6 10 4 16 5 21 22 23 21 10 2 2 6 10 16 28
20 21 21 21 22 22 22 22 22 21 20 20 17 15 13 10 4 9 10 19 18 15 9 20 19 16 14 13 10 9 7 10 7 4 19 5 20 25 24 8 7 7 2 5 3 12 4
21 22 22 22 22 23 23 23 22 21 21 20 17 14 12 6 13 8 1 5 6 6 9 25 25 13 13 16 16 15 9 9 16 12 12 15 28 16 3 11 5 6 0 9 6 5 11
22 23 23 23 24 24 24 24 23 22 23 20 16 14 10 8 8 17 15 4 6 8 9 12 17 19 18 16 18 17 13 12 10 9 22 28 21 22 10 13 9 5 8 7 13 9 8
22 23 23 24 24 25 25 25 24 23 23 20 15 11 8 10 5 5 8 8 8 8 10 20 18 20 19 14 17 12 11 18 13 9 16 23 25 25 21 15 13 7 3 5 3 4 1
23 23 24 24 25 26 26 26 25 24 22 18 12 9 14 11 7 10 7 9 13 14 23 16 18 18 20 18 17 19 14 14 15 15 16 19 6 8 14 10 10 12 12 8 14 9 9
23 24 25 25 26 27 28 28 27 26 23 17 10 6 6 9 14 10 7 10 13 20 9 17 18 19 18 21 16 15 15 8 13 21 10 8 11 20 23 10 11 15 11 14 11 9 5
23 24 25 26 27 28 29 29 28 27 23 14 5 9 9 11 12 8 9 6 6 18 14 19 17 15 18 20 20 21 23 26 26 26 24 10 9 17 20 10 12 15 15 11 5 3 3
24 25 26 27 28 29 30 30 29 29 25 7 7 7 7 9 9 8 10 16 16 27 6 10 9 3 14 17 16 16 17 23 34 30 24 24 19 7 23 10 11 7 9 11 3 2 4
25 26 27 28 29 30 31 31 30 28 29 2 7 2 8 9 8 9 13 18 6 4 7 6 7 19 15 4 16 14 16 16 21 18 18 14 13 11 15 11 9 10 13 8 4 7 1
25 27 27 28 29 31 32 33 31 26 19 8 6 8 7 9 7 11 16 17 4 6 6 8 7 8 6 1 20 9 11 11 2 6 4 10 11 12 15 1 11 10 10 8 12 5 16
26 27 28 29 30 31 34 36 35 31 14 5 7 4 7 8 12 19 15 9 9 5 11 7 13 13 9 7 16 6 4 9 6 3 6 6 12 14 4 6 6 16 14 17 18 6 8
25 27 28 29 30 32 34 36 39 40 36 5 6 6 3 9 12 18 13 12 15 4 10 5 12 9 15 12 18 20 7 6 6 5 4 8 13 13 6 13 10 19 18 13 18 8 8
25 26 27 29 30 31 32 34 37 42 45 3 8 7 10 14 1 5 6 4 6 16 5 9 8 14 15 10 13 10 13 14 10 17 9 11 13 16 15 16 9 20 15 3 19 21 5
24 25 27 28 29 30 31 32 34 33 31 7 9 9 8 6 12 7 9 12 11 10 12 2 10 13 8 10 3 14 24 17 9 9 26 9 10 15 14 13 7 6 7 5 17 9 16
24 25 26 27 28 29 30 31 31 30 26 8 9 7 7 9 4 9 10 11 10 8 9 16 10 10 13 16 15 15 18 16 14 16 14 9 5 8 13 21 15 10 10 12 19 6 5
23 24 25 26 26 27 28 29 29 29 27 6 9 7 6 9 9 10 14 11 12 7 10 11 9 9 12 14 12 14 15 18 17 16 17 15 13 12 10 17 16 12 3 7 7 18 18
23 24 25 26 26 27 27 27 27 27 26 11 8 8 6 8 8 11 11 9 8 10 12 13 4 10 14 9 10 15 14 17 16 20 17 19 16 13 14 16 15 5 13 8 15 3 13
22 23 24 25 26 26 27 27 26 26 26 10 6 14 6 7 8 8 9 8 8 9 8 9 13 8 11 8 11 13 16 18 19 21 19 3 6 10 15 14 8 10 24 19 7 4 13
21 22 23 24 25 25 26 26 25 25 23 13 8 10 7 7 6 6 6 7 8 4 7 14 9 1 7 8 9 11 13 13 17 18 18 15 6 6 7 23 5 16 3 3 7 6 9
20 22 22 23 24 24 25 26 25 23 22 16 6 9 7 5 9 5 5 3 3 4 6 8 11 7 5 6 8 7 11 10 13 12 11 9 10 6 7 3 7 13 13 15 14 11 10
Wind_Direction
9 6 4 2 0 359 360 360 359 357 355 353 351 350 348 345 341 335 325 305 295 290 289 292 294 305 271 225 146 136 165 174 190 205 218 265 288 346 213 229 165 158 124 94 141 15 115
10 6 3 0 358 357 357 358 357 355 353 351 349 348 346 343 339 334 322 302 287 284 284 284 290 299 247 254 116 154 185 175 207 211 222 57 269 244 266 88 35 171 207 119 190 117 102
8 5 2 358 356 356 354 354 354 354 351 349 347 346 343 340 338 330 319 301 286 278 282 279 276 270 260 8 148 170 174 191 219 71 323 164 239 260 339 314 196 191 152 148 168 140 120
7 4 0 356 353 353 353 352 351 352 348 346 345 343 341 337 335 327 316 300 285 274 275 266 267 256 277 75 149 181 215 222 149 130 230 256 260 246 165 233 271 95 353 343 151 159 138
4 360 358 355 351 349 349 348 349 349 346 343 342 340 338 334 332 323 314 302 277 265 252 256 235 233 185 151 177 184 233 259 207 202 210 264 258 264 277 264 225 76 155 284 288 174 163
2 359 357 354 350 346 344 345 345 347 344 341 338 337 334 330 328 323 314 294 315 249 223 220 258 242 164 180 171 226 269 253 283 268 257 245 251 56 32 320 134 199 151 166 269 168 197
0 358 355 352 347 344 343 343 343 344 341 339 336 333 330 326 325 324 311 200 203 196 218 209 176 235 169 163 151 201 226 253 258 259 251 22 350 180 236 233 263 215 190 178 214 165 184
359 355 352 348 345 342 341 341 339 337 336 336 333 328 325 324 319 320 274 247 308 37 185 236 264 226 133 145 168 144 246 257 241 259 79 31 320 275 270 282 223 208 206 173 123 149 35
355 351 349 346 344 341 339 338 335 333 332 332 329 324 319 320 322 258 228 240 264 321 222 201 243 211 144 189 150 138 191 247 283 17 48 61 228 267 295 278 216 96 354 174 183 120 111
352 350 347 344 343 339 336 334 331 329 328 330 324 319 314 319 279 215 218 241 252 270 279 179 200 225 181 198 146 171 245 248 250 339 37 304 267 266 270 310 330 177 20 290 164 173 141
353 349 346 344 341 338 335 332 328 328 326 326 320 312 304 259 323 251 88 244 229 243 261 167 188 205 191 211 145 188 199 225 219 119 105 262 283 326 306 277 330 48 128 289 257 237 139
351 348 345 343 340 337 333 330 328 327 327 323 315 306 304 214 222 254 310 284 235 225 261 159 170 188 197 213 185 145 178 207 244 153 208 239 286 266 251 282 250 328 253 272 324 278 229
350 347 344 341 339 336 333 331 329 327 325 320 308 283 254 311 230 259 231 249 221 249 234 139 161 186 205 191 144 135 157 202 217 217 248 247 246 244 227 250 237 224 289 339 325 233 321
349 346 343 341 338 336 334 332 330 328 323 316 288 258 217 244 285 263 261 234 260 236 242 155 159 180 206 192 193 154 161 211 235 240 274 281 221 228 189 228 293 284 167 180 268 216 119
348 346 344 341 339 338 336 335 334 331 327 319 306 187 232 223 219 273 239 222 268 277 166 146 166 178 194 207 194 176 157 204 221 208 233 304 319 310 301 234 230 269 241 300 300 4 45
349 347 344 343 342 340 338 338 338 334 331 324 252 197 172 127 174 219 232 222 259 266 291 165 175 189 197 195 208 184 178 178 206 226 216 226 236 284 265 229 260 280 301 300 335 35 353
350 348 346 345 345 343 341 342 343 339 335 331 243 206 123 166 184 225 236 230 223 253 321 36 326 295 227 184 190 230 203 208 211 228 226 225 244 291 276 209 248 206 234 244 233 171 285
352 350 349 347 346 345 344 345 348 346 336 196 274 233 147 172 211 224 236 263 340 25 191 139 342 269 337 315 195 213 215 216 205 209 220 228 256 196 227 209 191 242 272 293 358 279 63
354 352 350 349 348 348 347 346 349 354 354 315 265 111 160 206 233 228 233 264 248 285 296 304 183 173 218 247 261 270 207 78 101 218 286 247 230 267 272 235 224 243 255 252 182 143 94
355 354 351 351 351 352 350 348 349 349 354 270 272 144 151 217 271 285 261 242 227 222 305 309 315 313 280 46 14 298 201 151 159 102 349 293 237 239 260 88 351 307 321 327 332 75 104
355 355 353 353 354 355 355 352 351 348 344 257 267 351 116 184 226 256 284 234 235 210 207 307 297 280 346 64 4 330 332 351 186 105 245 253 264 261 268 150 340 293 281 316 309 300 169
355 356 355 354 355 357 357 357 356 353 338 44 347 352 331 302 343 283 287 298 287 27 351 335 332 5 329 89 178 279 303 322 47 328 208 236 261 278 288 125 277 267 241 138 298 279 128
355 356 355 355 355 356 358 359 358 4 346 25 359 321 287 280 278 224 21 10 25 20 303 14 343 330 357 84 275 203 257 293 144 293 278 293 359 341 278 290 256 223 282 220 222 246 54
354 355 355 355 355 356 357 358 358 1 9 298 6 302 293 313 11 35 2 350 359 359 312 316 322 335 8 326 302 274 274 256 263 246 279 273 84 22 315 309 277 290 333 331 332 29 11
353 352 353 354 354 354 355 357 356 356 359 313 13 352 332 313 12 24 351 352 316 269 246 282 325 340 321 311 300 291 281 265 247 242 257 263 258 231 248 246 296 339 325 33 8 354 5
352 350 350 351 352 352 353 355 355 353 359 328 10 357 312 307 59 342 315 295 348 333 319 275 125 348 305 282 285 271 268 275 279 286 250 246 285 283 261 265 277 254 112 41 280 48 358
350 350 349 348 350 350 349 351 353 352 352 334 312 11 300 298 57 358 14 345 322 316 296 302 351 311 294 271 263 263 268 268 262 266 275 39 23 307 310 266 293 45 167 149 99 29 186
347 346 346 347 347 346 346 346 349 349 351 348 296 25 354 322 39 3 347 336 330 317 315 359 305 148 300 285 272 270 267 270 273 270 273 275 194 150 256 267 195 20 40 27 104 133 79
343 343 343 344 343 344 343 341 344 344 346 343 303 360 322 265 330 339 322 311 307 337 316 324 304 292 355 304 342 326 316 310 302 289 314 286 317 349 348 100 94 52 48 31 68 66 43